TimeEST,TemperatureF,Dew PointF,Humidity,Sea Level PressureIn,VisibilityMPH,Wind Direction,Wind SpeedMPH,Gust SpeedMPH,PrecipitationIn,Events,Conditions,WindDirDegrees,DateUTC
12:16 AM,30.2,26.6,86,30.09,10.0,Calm,Calm,-,0.00,,Overcast,0,2013-02-22 05:16:00
12:53 AM,30.0,26.1,85,30.08,8.0,East,6.9,-,0.03,,Overcast,80,2013-02-22 05:53:00
1:04 AM,30.2,26.6,86,30.03,7.0,Variable,3.5,-,0.01,Rain,Light Freezing Rain,0,2013-02-22 06:04:00
1:48 AM,30.2,28.4,93,29.99,3.0,East,8.1,-,0.05,Rain,Light Freezing Rain,80,2013-02-22 06:48:00
1:53 AM,30.0,28.0,92,30.01,2.5,Variable,6.9,17.3,0.06,Rain,Light Freezing Rain,0,2013-02-22 06:53:00
2:01 AM,30.2,28.4,93,29.98,4.0,Variable,6.9,-,0.01,Rain,Light Freezing Rain,0,2013-02-22 07:01:00
2:14 AM,30.2,28.4,93,29.98,3.0,Variable,5.8,-,0.03,Rain,Light Freezing Rain,0,2013-02-22 07:14:00
2:16 AM,30.2,28.4,93,29.98,3.0,Variable,3.5,-,0.03,Rain,Light Freezing Rain,0,2013-02-22 07:16:00
2:44 AM,30.2,30.2,100,29.96,5.0,NE,4.6,-,0.04,,Overcast,40,2013-02-22 07:44:00
2:53 AM,30.9,30.0,96,29.99,3.0,NE,5.8,-,0.04,Rain,Light Freezing Rain,50,2013-02-22 07:53:00
3:20 AM,30.2,30.2,100,29.94,7.0,Variable,5.8,-,0.00,,Overcast,0,2013-02-22 08:20:00
3:53 AM,32.0,30.0,92,29.95,3.0,Variable,4.6,-,0.02,Rain,Light Freezing Rain,0,2013-02-22 08:53:00
4:22 AM,32.0,30.2,93,29.92,2.0,ENE,5.8,-,0.02,Rain,Light Freezing Rain,60,2013-02-22 09:22:00
4:37 AM,32.0,30.2,93,29.91,3.0,Variable,5.8,-,0.02,,Overcast,0,2013-02-22 09:37:00
4:45 AM,32.0,30.2,93,29.91,2.0,Variable,5.8,-,0.02,,Overcast,0,2013-02-22 09:45:00
4:53 AM,32.0,30.9,96,29.93,4.0,ENE,5.8,-,0.02,,Overcast,70,2013-02-22 09:53:00
5:53 AM,33.1,32.0,96,29.94,4.0,Calm,Calm,-,0.00,,Overcast,0,2013-02-22 10:53:00
6:53 AM,33.1,32.0,96,29.95,7.0,ESE,3.5,-,N/A,,Overcast,110,2013-02-22 11:53:00
7:53 AM,35.1,34.0,96,29.97,9.0,SSW,5.8,-,N/A,,Mostly Cloudy,210,2013-02-22 12:53:00
8:53 AM,41.0,39.0,93,29.99,10.0,Variable,5.8,-,N/A,,Overcast,0,2013-02-22 13:53:00
9:53 AM,48.0,43.0,83,29.96,10.0,Variable,3.5,-,N/A,,Clear,0,2013-02-22 14:53:00
10:53 AM,51.1,44.1,77,29.98,10.0,Variable,6.9,-,N/A,,Mostly Cloudy,0,2013-02-22 15:53:00
11:23 AM,51.8,44.6,76,29.97,10.0,Variable,5.8,-,N/A,,Mostly Cloudy,0,2013-02-22 16:23:00
11:53 AM,54.0,45.0,72,29.99,10.0,SSW,6.9,-,N/A,,Overcast,200,2013-02-22 16:53:00
12:53 PM,55.9,45.0,67,29.97,10.0,Variable,3.5,-,N/A,,Overcast,0,2013-02-22 17:53:00
1:53 PM,55.9,44.1,64,29.97,10.0,Variable,6.9,-,N/A,,Overcast,0,2013-02-22 18:53:00
2:53 PM,57.0,44.1,62,29.96,10.0,Variable,4.6,-,N/A,,Overcast,0,2013-02-22 19:53:00
3:53 PM,59.0,44.1,58,29.95,10.0,Calm,Calm,-,N/A,,Partly Cloudy,0,2013-02-22 20:53:00
4:53 PM,57.9,44.1,60,29.94,10.0,Variable,3.5,-,N/A,,Clear,0,2013-02-22 21:53:00
5:53 PM,55.9,43.0,62,29.95,10.0,Variable,4.6,-,N/A,,Partly Cloudy,0,2013-02-22 22:53:00
6:53 PM,53.1,44.1,71,29.96,10.0,Calm,Calm,-,N/A,,Clear,0,2013-02-22 23:53:00
7:53 PM,52.0,44.1,74,29.97,10.0,Variable,4.6,-,N/A,,Clear,0,2013-02-23 00:53:00
8:53 PM,52.0,44.1,74,29.98,10.0,Calm,Calm,-,N/A,,Clear,0,2013-02-23 01:53:00
9:53 PM,51.1,44.1,77,29.98,10.0,Variable,3.5,-,N/A,,Clear,0,2013-02-23 02:53:00
10:53 PM,50.0,44.1,80,29.97,10.0,SSW,5.8,-,N/A,,Clear,210,2013-02-23 03:53:00
11:53 PM,48.9,44.1,83,29.97,10.0,SW,4.6,-,N/A,,Clear,230,2013-02-23 04:53:00